DateTimeUTC,F1_A11,F1_S11,BsB_S11,BsG_S11,BsR_S11,BbsB_S11,BbsG_S11,BbsR_S11,BaB_A11,BaG_A11,BaR_A11,Tu_S11,T_S11,Uu_S11,U_S11,P_S11,T1_A11
2021-08-06T10:00:00Z,00000200,20000000,,,,,,,0000.33,0000.25,0000.41,17.2,24.1,02.8,01.8,0667.2,30.9
2021-08-06T10:01:00Z,00000200,20000000,,,,,,,0000.24,0000.16,0000.46,17.2,24.1,02.9,01.9,0667.2,30.9
2021-08-06T10:02:00Z,00000200,20000000,,,,,,,-000.08,0000.26,-000.12,17.2,24.1,02.9,01.9,0667.2,30.9
2021-08-06T10:03:00Z,00000200,60000000,,,,,,,-000.15,-000.96,-000.87,17.2,24.1,02.9,01.9,0667.2,30.9
2021-08-06T10:04:00Z,00000200,40000000,0002.25,0001.84,0000.94,0000.31,0000.58,0000.48,0001.47,0001.59,0001.53,17.3,23.9,02.8,01.9,0668.1,30.9
2021-08-06T10:05:00Z,00000200,00000000,0002.48,0002.13,0001.23,0000.24,0000.09,0000.10,0000.90,0001.05,0000.70,17.4,23.9,03.0,02.0,0668.2,30.9
2021-08-06T10:06:00Z,00000200,00000000,0002.16,0002.27,0001.11,0000.10,0000.41,0000.09,0000.70,0000.68,0000.43,17.4,23.8,03.2,02.1,0668.2,30.9
2021-08-06T10:07:00Z,00000200,00000000,0002.42,0002.09,0000.96,0000.49,0000.27,0000.24,0000.89,0000.77,0000.57,17.4,23.8,03.3,02.2,0668.1,30.9
2021-08-06T10:08:00Z,00000200,00000000,0002.51,0002.05,0000.97,0000.08,0000.54,0000.20,0000.40,0000.53,0000.50,17.4,23.8,03.2,02.2,0668.1,30.9
2021-08-06T10:09:00Z,00000200,00000000,0003.25,0002.11,0001.46,0000.31,0000.17,-000.03,0000.51,0000.06,-000.11,17.4,23.8,03.0,02.0,0668.1,30.9
2021-08-06T10:10:00Z,00000200,00000000,0003.92,0002.49,0001.42,0000.77,0000.59,0000.56,0000.80,0000.98,0001.00,17.5,23.8,02.9,02.0,0668.1,30.9
2021-08-06T10:11:00Z,00000200,00000000,0002.81,0002.17,0001.24,-000.43,0000.65,0000.18,0001.39,0001.03,0001.09,17.5,23.8,03.2,02.2,0668.1,30.9
2021-08-06T10:12:00Z,00000200,00000000,0003.06,0002.08,0001.00,0000.17,0000.26,0000.41,0001.05,0000.83,0000.89,17.5,23.8,03.3,02.3,0668.1,30.9
2021-08-06T10:13:00Z,00000200,00000000,0002.98,0002.20,0001.07,0000.47,0000.45,0000.07,0000.39,0000.96,0000.48,17.5,23.8,03.4,02.3,0668.0,30.9
2021-08-06T10:14:00Z,00000200,00000000,0002.96,0002.04,0001.00,0000.68,0000.57,0000.04,0000.98,0000.54,0000.37,17.5,23.8,03.4,02.3,0668.0,30.9
2021-08-06T10:15:00Z,00000200,00000000,0003.12,0001.99,0001.27,0000.32,0000.41,0000.33,0000.55,0000.81,0000.28,17.5,23.8,03.4,02.3,0668.0,30.9
2021-08-06T10:16:00Z,00000200,00000000,0002.77,0001.94,0001.35,0000.04,0000.33,0000.25,0000.82,0000.61,0000.71,17.5,23.8,03.3,02.2,0668.0,30.9
2021-08-06T10:17:00Z,00000200,00000000,0003.37,0002.27,0001.43,0000.31,0000.03,0000.49,0000.54,0000.66,0000.42,17.5,23.8,03.4,02.3,0668.0,30.9
2021-08-06T10:18:00Z,00000200,00000000,0003.27,0002.18,0001.51,0000.14,0000.17,0000.29,0000.82,0000.73,0000.80,17.5,23.8,03.4,02.3,0668.0,30.9
2021-08-06T10:19:00Z,00000200,00000000,0003.21,0002.02,0001.13,0000.54,0000.07,0000.75,0000.88,0000.94,0000.33,17.5,23.8,03.4,02.3,0668.0,30.9
2021-08-06T10:20:00Z,00000200,00000000,0003.09,0002.25,0001.26,0000.58,0000.69,0000.04,0000.72,0000.34,0000.37,17.5,23.8,03.4,02.3,0668.0,30.9
2021-08-06T10:21:00Z,00000200,00000000,0003.10,0002.24,0001.18,0000.59,0000.33,0000.46,0000.64,0000.92,0000.59,17.5,23.8,03.4,02.3,0668.0,30.9
2021-08-06T10:22:00Z,00000200,00000000,0003.49,0002.12,0001.33,0000.02,0000.53,0000.40,0000.73,0000.22,0000.06,17.5,23.8,03.5,02.3,0668.0,30.9
2021-08-06T10:23:00Z,00000200,00000000,0002.85,0002.21,0001.12,0000.47,0000.24,-000.01,0000.39,0000.58,0000.64,17.5,23.8,03.2,02.2,0668.1,30.9
2021-08-06T10:24:00Z,00000200,00000000,0002.50,0001.89,0001.36,0000.36,0000.31,0000.70,0001.40,0001.11,0000.73,17.5,23.8,03.3,02.2,0668.1,30.9
2021-08-06T10:25:00Z,00000200,00000000,0002.77,0001.99,0000.84,0000.01,0000.34,0000.29,0000.31,0000.20,0000.22,17.5,23.8,03.4,02.3,0668.0,30.9
2021-08-06T10:26:00Z,00000200,00000000,0003.16,0002.25,0001.25,0000.68,0000.26,0000.32,0000.18,0000.19,-000.01,17.5,23.8,03.2,02.2,0668.1,30.9
2021-08-06T10:27:00Z,00000200,00000000,0003.39,0002.32,0001.37,0000.38,0000.32,0000.08,-000.15,-000.52,-000.40,17.5,23.8,02.9,01.9,0668.1,30.9
2021-08-06T10:28:00Z,00000200,00000000,0003.65,0002.34,0001.39,0000.08,0000.79,0000.44,0000.02,0000.42,-000.07,17.5,23.8,02.5,01.7,0668.1,30.9
2021-08-06T10:29:00Z,00000200,00000000,0003.15,0002.82,0001.84,0000.31,0000.50,0000.37,0000.92,0000.63,0000.38,17.5,23.8,02.2,01.5,0668.1,30.9
2021-08-06T10:30:00Z,00000200,00000000,0004.02,0002.63,0001.18,0000.33,0000.49,0000.54,0000.96,0000.95,0000.97,17.5,23.8,02.4,01.6,0668.1,30.9
2021-08-06T10:31:00Z,00000200,00000000,0003.62,0002.75,0001.51,0000.42,0000.62,0000.09,0000.14,0000.08,0000.03,17.5,23.8,02.3,01.5,0668.0,30.9
2021-08-06T10:32:00Z,00000200,00000000,0003.63,0002.55,0001.32,-000.02,0000.25,0000.28,0001.18,0000.95,0000.86,17.5,23.8,02.0,01.4,0668.0,30.9
2021-08-06T10:33:00Z,00000200,00000000,0003.69,0002.65,0001.73,0000.75,0000.19,0000.35,0001.48,0001.34,0001.02,17.5,23.7,02.3,01.5,0668.0,30.9
2021-08-06T10:34:00Z,00000200,00000000,0003.77,0002.79,0001.38,0000.79,0000.48,0000.16,0000.49,0000.41,0000.56,17.5,23.7,02.4,01.6,0668.0,30.9
2021-08-06T10:35:00Z,00000200,00000000,0003.81,0002.63,0001.70,0000.66,0000.41,0000.31,0000.86,0000.69,0000.65,17.5,23.7,02.3,01.6,0668.0,30.9
2021-08-06T10:36:00Z,00000200,00000000,0004.32,0002.44,0001.64,0000.43,0000.28,0000.33,0000.98,0001.18,0000.38,17.5,23.7,02.4,01.6,0668.0,30.9
2021-08-06T10:37:00Z,00000200,00000000,0004.02,0002.72,0001.47,0000.48,0000.40,0000.34,0000.86,0000.73,0000.52,17.5,23.7,02.4,01.6,0668.0,30.9
2021-08-06T10:38:00Z,00000200,00000000,0004.42,0002.56,0001.42,0000.32,0000.49,0000.16,0000.83,0000.64,0000.42,17.5,23.7,02.3,01.5,0668.0,30.9
2021-08-06T10:39:00Z,00000200,00000000,0003.73,0002.96,0001.46,0000.71,0000.53,0000.37,0000.84,0000.67,0001.10,17.5,23.8,02.3,01.6,0668.0,30.9
2021-08-06T10:40:00Z,00000200,00000000,0003.83,0002.57,0001.34,0000.36,0001.03,0000.39,0001.12,0001.12,0000.50,17.6,23.8,02.3,01.5,0668.0,30.9
2021-08-06T10:41:00Z,00000200,00000000,0003.58,0002.59,0001.26,0000.41,0000.40,0000.34,0000.93,0000.74,0000.79,17.6,23.8,02.4,01.6,0668.0,30.9
2021-08-06T10:42:00Z,00000200,00000000,0003.49,0002.64,0001.44,0000.57,0000.48,0000.32,0000.50,0000.86,0000.71,17.6,23.8,02.3,01.6,0668.0,30.9
2021-08-06T10:43:00Z,00000200,00000000,0003.97,0002.68,0001.72,0000.38,0000.30,0000.44,0001.64,0001.37,0000.66,17.6,23.8,02.4,01.6,0668.0,30.9
2021-08-06T10:44:00Z,00000200,00000000,0003.15,0002.34,0001.47,0000.38,0000.54,0000.45,0000.85,0000.91,0000.93,17.6,23.8,02.7,01.8,0668.0,30.9
2021-08-06T10:45:00Z,00000200,00000000,0004.19,0002.36,0001.43,0000.27,0000.31,0000.25,0000.39,0000.66,0000.11,17.6,23.8,02.6,01.8,0668.0,30.9
2021-08-06T10:46:00Z,00000200,00000000,0003.23,0002.52,0001.59,0000.50,0000.35,0000.32,0000.69,0000.49,0000.71,17.6,23.8,02.5,01.7,0668.0,30.9
2021-08-06T10:47:00Z,00000200,00000000,0003.11,0002.56,0001.55,0000.31,0000.31,0000.41,0000.86,0000.50,0000.37,17.6,23.8,02.4,01.6,0668.0,30.9
2021-08-06T10:48:00Z,00000200,00000000,0003.73,0002.10,0001.26,0000.57,0000.78,0000.19,0001.17,0000.86,0000.46,17.6,23.8,02.4,01.6,0668.0,30.9
2021-08-06T10:49:00Z,00000200,00000000,0002.96,0002.68,0001.87,0000.12,0000.53,0000.51,0000.30,0000.40,0000.47,17.6,23.8,02.3,01.6,0668.0,30.9
2021-08-06T10:50:00Z,00000200,00000000,0003.18,0002.32,0001.54,0001.08,0000.50,0000.50,0001.07,0000.87,0000.74,17.6,23.8,02.4,01.6,0668.0,30.9
2021-08-06T10:51:00Z,00000200,00000000,0003.48,0002.23,0001.65,0000.47,0000.10,0000.40,0000.78,0001.08,0000.56,17.6,23.8,02.4,01.7,0668.0,30.9
2021-08-06T10:52:00Z,00000200,00000000,0003.71,0002.48,0001.55,0000.46,0000.23,0000.31,0000.66,0000.06,0000.51,17.6,23.8,02.3,01.6,0668.0,30.9
2021-08-06T10:53:00Z,00000200,00000000,0003.29,0002.75,0001.70,0000.26,0000.41,0000.54,0000.53,0000.76,0000.53,17.6,23.8,02.2,01.5,0668.0,30.9
2021-08-06T10:54:00Z,00000200,00000000,0003.57,0002.58,0001.48,0000.74,0000.34,0000.29,0001.12,0000.52,0000.42,17.6,23.8,02.4,01.6,0668.0,30.9
2021-08-06T10:55:00Z,00000200,00000000,0004.01,0002.46,0001.36,0000.50,0000.45,0000.48,0000.61,0001.18,0000.62,17.6,23.8,02.3,01.5,0668.0,30.9
2021-08-06T10:56:00Z,00000200,00000000,0003.33,0002.83,0001.34,0000.31,0000.29,0000.04,0000.92,0000.46,0000.13,17.6,23.8,02.2,01.5,0668.0,30.9
2021-08-06T10:57:00Z,00000200,40000000,,,,,,,0000.69,0000.69,0000.99,17.6,23.8,02.8,01.9,0668.1,30.9
2021-08-06T10:58:00Z,00000200,60000000,,,,,,,-000.25,-000.04,-000.29,17.4,23.9,02.4,01.6,0667.0,30.9
2021-08-06T10:59:00Z,00000200,20000000,,,,,,,-000.15,-000.18,-000.32,17.4,24.0,02.3,01.5,0667.0,30.9
